Zurück zum Katalog

RADUGA 24

AktivMilitärGEO
NORAD 20367·PAYLOAD·🇷🇺 Russia

Gestartet Dec 15, 1989 von Baikonur Cosmodrome

Loading…

TLE

AktuellSource: Space-Track

Epoche: Sep 13, 2026, 16:02 UTC

1 20367U 89098A   26256.66814756 -.00000312  00000-0  00000-0 0  9993
2 20367  12.4100 333.1662 0003558 291.6894  67.1929  1.00232637133850

Verfolge RADUGA 24 in Echtzeit mit AllMySat

Download on the App Store